Powrót do katalogu

SBIRS GEO 3

USA 282

AktywnyMilitariaGEO
NORAD 43162·PAYLOAD·🇺🇸 United States

Wystrzelony Jan 20, 2018 z Cape Canaveral Space Force Station

Loading…

TLE

ŚwieżeSource: Space-Track

Epoka: Sep 14, 2026, 13:30 UTC

1 43162U 18009A   26257.56250164  .00000121  00000-0  00000-0 0  9999
2 43162   2.2580  16.0831 0001840 154.6974 225.8636  1.00272598 31744

Śledź SBIRS GEO 3 w czasie rzeczywistym z AllMySat

Download on the App Store